FW2905 Weather Reports


Display with metric or nautical units.
time (UTC)temp
F
wind
direction
speed
MPH
gust
MPH
rain 1hr
in
rain 24hr
in
rain mn
in
humidity
%
barometer
mb
20260509121533 55 308 5.0 11.0 0.00 0.00 0.00 51 1001.6
20260509121016 55 252 6.0 13.0 0.00 0.00 0.00 51 1001.6
20260509120517 55 288 5.0 13.0 0.00 0.00 0.00 51 1001.5
20260509120032 55 311 8.0 13.0 0.00 0.00 0.00 50 1001.5
20260509115516 55 317 7.0 12.0 0.00 0.00 0.00 53 1001.6
20260509115016 54 266 6.0 12.0 0.00 0.00 0.00 54 1001.4
20260509114530 54 316 6.0 13.0 0.00 0.00 0.00 56 1001.4
20260509114016 54 273 5.0 13.0 0.00 0.00 0.00 58 1001.4
20260509113515 54 290 6.0 13.0 0.00 0.00 0.00 59 1001.3
20260509113031 54 298 6.0 14.0 0.00 0.00 0.00 61 1001.3
20260509112516 54 300 6.0 14.0 0.00 0.00 0.00 63 1001.1
20260509112016 54 298 7.0 14.0 0.00 0.00 0.00 65 1001.1
20260509111530 54 325 6.0 12.0 0.00 0.00 0.00 67 1001.1
20260509111016 53 297 6.0 10.0 0.00 0.00 0.00 69 1001.0
20260509110515 53 221 3.0 12.0 0.00 0.00 0.00 70 1000.9
20260509110030 54 266 5.0 13.0 0.00 0.00 0.00 71 1000.9
20260509105516 54 250 6.0 15.0 0.00 0.00 0.00 72 1000.9
20260509105016 54 259 5.0 15.0 0.00 0.00 0.00 72 1000.8
20260509104534 54 261 6.0 15.0 0.00 0.00 0.00 73 1000.9
20260509104016 53 306 5.0 11.0 0.00 0.00 0.00 73 1000.8
20260509103516 53 242 5.0 11.0 0.00 0.00 0.00 73 1000.6
20260509103031 53 237 4.0 9.0 0.00 0.00 0.00 74 1000.6
20260509102518 54 265 4.0 11.0 0.00 0.00 0.00 74 1000.6
20260509102016 54 263 4.0 11.0 0.00 0.00 0.00 74 1000.6
20260509101531 54 239 3.0 9.0 0.00 0.00 0.00 74 1000.5
20260509101015 54 226 4.0 10.0 0.00 0.00 0.00 74 1000.6
20260509100514 54 274 4.0 10.0 0.00 0.00 0.00 73 1000.6
20260509100047 55 200 3.0 12.0 0.00 0.00 0.00 73 1000.5
20260509095515 55 241 6.0 14.0 0.00 0.00 0.00 73 1000.4
20260509095020 55 240 5.0 14.0 0.00 0.00 0.00 73 1000.5
20260509094533 55 273 6.0 15.0 0.00 0.00 0.00 73 1000.5
20260509094016 55 217 4.0 15.0 0.00 0.00 0.00 73 1000.5
20260509093516 55 317 7.0 15.0 0.00 0.00 0.00 73 1000.6
20260509093034 55 234 5.0 14.0 0.00 0.00 0.00 73 1000.7
20260509092515 55 178 5.0 17.0 0.00 0.00 0.00 73 1000.8
20260509092013 55 206 6.0 17.0 0.00 0.00 0.00 73 1000.8
20260509091530 55 236 7.0 17.0 0.00 0.00 0.00 73 1000.8
20260509091015 55 241 5.0 14.0 0.00 0.00 0.00 72 1000.8
20260509090513 55 202 8.0 14.0 0.00 0.00 0.00 72 1000.8
20260509090032 55 259 5.0 19.0 0.00 0.00 0.00 72 1000.8
20260509085515 55 275 7.0 20.0 0.00 0.00 0.00 71 1000.9
20260509085022 55 217 8.0 20.0 0.00 0.00 0.00 71 1000.8
20260509084534 55 247 7.0 18.0 0.00 0.00 0.00 70 1000.8
20260509084016 55 204 7.0 16.0 0.00 0.00 0.00 70 1000.7
20260509083516 55 217 8.0 16.0 0.00 0.00 0.00 70 1000.7
20260509083031 55 198 6.0 15.0 0.00 0.00 0.00 70 1000.7
20260509082520 55 259 7.0 15.0 0.00 0.00 0.00 69 1000.6
20260509082016 55 184 8.0 14.0 0.00 0.00 0.00 69 1000.6
20260509081541 55 194 9.0 14.0 0.00 0.00 0.00 69 1000.7
20260509081016 55 203 6.0 13.0 0.00 0.00 0.00 68 1000.7
20260509080516 55 184 6.0 13.0 0.00 0.00 0.00 68 1000.6
20260509080030 55 236 6.0 11.0 0.00 0.00 0.00 67 1000.6
20260509075517 54 257 6.0 14.0 0.00 0.00 0.00 67 1000.7
20260509075016 54 213 7.0 14.0 0.00 0.00 0.00 66 1000.7
20260509074536 54 232 5.0 11.0 0.00 0.00 0.00 66 1000.9
20260509074016 54 209 5.0 11.0 0.00 0.00 0.00 65 1000.9
20260509073516 54 206 4.0 9.0 0.00 0.00 0.00 65 1001.0
20260509073033 54 208 3.0 10.0 0.00 0.00 0.00 65 1001.0
20260509072521 54 204 4.0 10.0 0.00 0.00 0.00 64 1001.0
20260509072015 54 228 3.0 7.0 0.00 0.00 0.00 64 1001.2
20260509071530 54 201 3.0 6.0 0.00 0.00 0.00 63 1001.2
20260509071016 54 205 4.0 6.0 0.00 0.00 0.00 63 1001.3
20260509070516 54 200 2.0 7.0 0.00 0.00 0.00 63 1001.4
20260509070031 54 210 3.0 7.0 0.00 0.00 0.00 62 1001.4
20260509065519 54 194 3.0 7.0 0.00 0.00 0.00 62 1001.4
20260509065016 54 174 2.0 6.0 0.00 0.00 0.00 62 1001.6
20260509064531 54 182 2.0 7.0 0.00 0.00 0.00 62 1001.8
20260509064014 54 181 3.0 7.0 0.00 0.00 0.00 62 1002.1
20260509063516 54 183 3.0 8.0 0.00 0.00 0.00 62 1002.1
20260509063030 55 224 2.0 10.0 0.00 0.00 0.00 61 1002.2
20260509062518 56 197 5.0 10.0 0.00 0.00 0.00 60 1002.3
20260509062014 54 182 4.0 9.0 0.00 0.00 0.00 63 1002.6
20260509061543 53 217 4.0 9.0 0.00 0.00 0.00 66 1002.8
20260509061021 53 304 2.0 4.0 0.00 0.00 0.00 66 1003.1
20260509060520 53 323 2.0 4.0 0.00 0.00 0.00 66 1002.9
20260509060031 53 306 2.0 4.0 0.00 0.00 0.00 65 1002.6
20260509055516 52 273 1.0 3.0 0.00 0.00 0.00 66 1002.5
20260509055024 52 290 1.0 4.0 0.00 0.00 0.00 67 1002.6
20260509054531 52 200 1.0 4.0 0.00 0.00 0.00 66 1002.7
20260509054016 53 198 2.0 4.0 0.00 0.00 0.00 66 1002.6
20260509053516 53 177 1.0 4.0 0.00 0.00 0.00 66 1002.8
20260509053032 52 153 0.0 7.0 0.00 0.00 0.00 67 1002.8
20260509052517 52 215 2.0 10.0 0.00 0.00 0.00 67 1002.9
20260509052021 52 182 4.0 10.0 0.00 0.00 0.00 67 1002.7
20260509051533 52 170 6.0 10.0 0.00 0.00 0.00 67 1002.7
20260509051016 52 173 4.0 9.0 0.00 0.00 0.00 67 1002.9
20260509050515 52 165 5.0 9.0 0.00 0.00 0.00 67 1003.0
20260509050046 52 182 4.0 10.0 0.00 0.00 0.00 67 1003.1
20260509045515 52 153 5.0 10.0 0.00 0.00 0.00 67 1003.1
20260509045016 52 182 4.0 8.0 0.00 0.00 0.00 67 1003.1
20260509044542 52 156 5.0 9.0 0.00 0.00 0.00 67 1003.1
20260509044015 52 169 6.0 9.0 0.00 0.00 0.00 67 1003.2
20260509043515 52 176 4.0 7.0 0.00 0.00 0.00 66 1003.5
20260509043033 52 186 3.0 8.0 0.00 0.00 0.00 66 1003.5
20260509042520 52 190 3.0 8.0 0.00 0.00 0.00 66 1003.6
20260509042013 52 163 4.0 8.0 0.00 0.00 0.00 65 1003.7
20260509041531 52 171 3.0 6.0 0.00 0.00 0.00 65 1003.7
20260509041016 52 164 3.0 7.0 0.00 0.00 0.00 65 1003.7
20260509040515 52 193 2.0 7.0 0.00 0.00 0.00 65 1003.9
20260509040031 52 151 3.0 7.0 0.00 0.00 0.00 65 1003.9
20260509035515 52 137 3.0 7.0 0.00 0.00 0.00 65 1003.9
20260509035013 52 174 3.0 6.0 0.00 0.00 0.00 65 1003.8
20260509034529 52 164 2.0 6.0 0.00 0.00 0.00 65 1004.0
20260509034015 52 172 2.0 6.0 0.00 0.00 0.00 65 1004.0
20260509033515 52 150 3.0 6.0 0.00 0.00 0.00 64 1003.9
20260509033030 52 203 3.0 6.0 0.00 0.00 0.00 64 1004.1
20260509032518 52 176 3.0 6.0 0.00 0.00 0.00 64 1004.2
20260509032016 52 177 2.0 6.0 0.00 0.00 0.00 63 1004.2
20260509031534 53 169 2.0 5.0 0.00 0.00 0.00 63 1004.2
20260509031014 53 162 2.0 6.0 0.00 0.00 0.00 62 1004.2
20260509030519 53 162 3.0 6.0 0.00 0.00 0.00 61 1004.3
20260509030034 53 150 3.0 5.0 0.00 0.00 0.00 61 1004.4
20260509025516 53 197 2.0 6.0 0.00 0.00 0.00 60 1004.4
20260509025017 54 147 2.0 7.0 0.00 0.00 0.00 60 1004.4
20260509024530 54 171 3.0 7.0 0.00 0.00 0.00 59 1004.4
20260509024020 54 159 4.0 7.0 0.00 0.00 0.00 59 1004.5
20260509023518 54 168 4.0 7.0 0.00 0.00 0.00 58 1004.5
20260509023035 54 192 4.0 9.0 0.00 0.00 0.00 56 1004.6
20260509022515 54 192 4.0 9.0 0.00 0.00 0.00 56 1004.6
20260509022012 55 150 4.0 7.0 0.00 0.00 0.00 55 1004.7
20260509021532 55 169 4.0 9.0 0.00 0.00 0.00 54 1004.7
20260509021013 55 138 2.0 9.0 0.00 0.00 0.00 53 1004.7
20260509020516 55 134 4.0 9.0 0.00 0.00 0.00 52 1004.7
20260509020030 55 174 4.0 9.0 0.00 0.00 0.00 51 1004.7
20260509015516 55 159 4.0 10.0 0.00 0.00 0.00 50 1004.7
20260509015016 55 174 3.0 11.0 0.00 0.00 0.00 49 1004.6
20260509014535 55 153 5.0 11.0 0.00 0.00 0.00 48 1004.6
20260509014015 55 149 5.0 10.0 0.00 0.00 0.00 47 1004.6
20260509013517 55 202 4.0 10.0 0.00 0.00 0.00 47 1004.6
20260509013045 54 165 5.0 11.0 0.00 0.00 0.00 46 1004.5
20260509012515 54 170 4.0 11.0 0.00 0.00 0.00 46 1004.6
20260509012013 54 169 3.0 10.0 0.00 0.00 0.00 45 1004.6
20260509011533 54 167 4.0 10.0 0.00 0.00 0.00 45 1004.5
20260509011015 54 157 5.0 9.0 0.00 0.00 0.00 44 1004.4
20260509010515 55 162 4.0 8.0 0.00 0.00 0.00 44 1004.4
20260509010029 55 162 4.0 11.0 0.00 0.00 0.00 43 1004.5
20260509005513 55 170 5.0 11.0 0.00 0.00 0.00 42 1004.4
20260509005016 55 171 4.0 9.0 0.00 0.00 0.00 42 1004.4
20260509004534 56 177 4.0 9.0 0.00 0.00 0.00 41 1004.5
20260509004014 56 164 4.0 9.0 0.00 0.00 0.00 41 1004.6
20260509003518 56 173 3.0 8.0 0.00 0.00 0.00 40 1004.6
20260509003034 56 144 4.0 9.0 0.00 0.00 0.00 39 1004.7
20260509002514 57 146 5.0 9.0 0.00 0.00 0.00 39 1004.6
20260509002015 57 119 2.0 8.0 0.00 0.00 0.00 39 1004.7
20260509001531 57 159 2.0 9.0 0.00 0.00 0.00 38 1004.7
20260509001014 57 152 4.0 10.0 0.00 0.00 0.00 37 1004.7
20260509000514 58 169 5.0 10.0 0.00 0.00 0.00 38 1004.7
20260509000030 58 146 3.0 11.0 0.00 0.00 0.00 37 1004.7
20260508235516 58 151 5.0 11.0 0.00 0.00 0.00 37 1004.7
20260508235014 58 153 5.0 11.0 0.00 0.00 0.00 37 1004.7
20260508234530 58 160 3.0 8.0 0.00 0.00 0.00 38 1004.7
20260508234014 58 135 3.0 9.0 0.00 0.00 0.00 38 1004.8
20260508233513 58 160 4.0 9.0 0.00 0.00 0.00 38 1004.8
20260508233033 59 140 4.0 9.0 0.00 0.00 0.00 37 1004.9
20260508232513 59 178 4.0 11.0 0.00 0.00 0.00 37 1004.9
20260508232013 59 151 7.0 13.0 0.00 0.00 0.00 37 1004.9
20260508231533 59 158 4.0 13.0 0.00 0.00 0.00 36 1005.0
20260508231014 59 147 7.0 13.0 0.00 0.00 0.00 35 1004.9
20260508230514 60 178 5.0 12.0 0.00 0.00 0.00 34 1005.2
20260508230048 60 159 2.0 12.0 0.00 0.00 0.00 33 1005.2
20260508225516 59 161 7.0 12.0 0.00 0.00 0.00 33 1005.1
20260508225013 60 182 4.0 13.0 0.00 0.00 0.00 33 1005.4
20260508224554 60 153 6.0 13.0 0.00 0.00 0.00 31 1005.2
20260508224013 62 163 4.0 7.0 0.00 0.00 0.00 30 1005.3
20260508223518 62 126 3.0 7.0 0.00 0.00 0.00 30 1005.3
20260508223033 63 186 3.0 9.0 0.00 0.00 0.00 32 1005.5
20260508222515 63 200 3.0 12.0 0.00 0.00 0.00 30 1005.4
20260508222016 62 202 4.0 13.0 0.00 0.00 0.00 30 1005.4
20260508221530 63 148 6.0 14.0 0.00 0.00 0.00 30 1005.4
20260508221019 63 215 4.0 14.0 0.00 0.00 0.00 29 1005.5
20260508220514 63 164 5.0 13.0 0.00 0.00 0.00 29 1005.5
20260508220033 65 164 5.0 13.0 0.00 0.00 0.00 28 1005.6
20260508215514 66 309 7.0 13.0 0.00 0.00 0.00 24 1005.6
20260508215014 65 300 4.0 11.0 0.00 0.00 0.00 25 1005.6
20260508214530 65 133 5.0 13.0 0.00 0.00 0.00 27 1005.8
20260508214019 65 211 6.0 14.0 0.00 0.00 0.00 25 1005.6
20260508213516 65 255 5.0 14.0 0.00 0.00 0.00 24 1005.7
20260508213030 65 233 7.0 19.0 0.00 0.00 0.00 23 1005.7
20260508212519 65 240 9.0 17.0 0.00 0.00 0.00 23 1005.9
20260508212015 66 247 4.0 16.0 0.00 0.00 0.00 23 1005.9
20260508211529 67 200 4.0 16.0 0.00 0.00 0.00 25 1005.9
20260508211016 66 199 7.0 16.0 0.00 0.00 0.00 23 1006.0
20260508210516 66 289 7.0 16.0 0.00 0.00 0.00 23 1005.9
20260508210032 66 271 7.0 15.0 0.00 0.00 0.00 24 1006.0
20260508205518 66 287 7.0 15.0 0.00 0.00 0.00 25 1006.1
20260508205015 66 302 5.0 13.0 0.00 0.00 0.00 24 1006.0
20260508204530 65 299 5.0 17.0 0.00 0.00 0.00 24 1006.2
20260508204018 65 243 7.0 17.0 0.00 0.00 0.00 23 1006.2
20260508203515 66 229 9.0 16.0 0.00 0.00 0.00 24 1006.3
20260508203030 67 257 9.0 16.0 0.00 0.00 0.00 24 1006.4
20260508202517 66 217 7.0 12.0 0.00 0.00 0.00 24 1006.5
20260508202015 65 161 5.0 11.0 0.00 0.00 0.00 25 1006.5
20260508201533 65 219 6.0 14.0 0.00 0.00 0.00 24 1006.6
20260508201017 65 328 7.0 15.0 0.00 0.00 0.00 25 1006.7
20260508200516 66 311 8.0 15.0 0.00 0.00 0.00 25 1006.8
20260508200030 64 229 8.0 16.0 0.00 0.00 0.00 26 1006.9
20260508195518 64 305 8.0 16.0 0.00 0.00 0.00 26 1006.9
20260508195017 65 306 8.0 16.0 0.00 0.00 0.00 25 1007.0
20260508194531 66 303 8.0 19.0 0.00 0.00 0.00 25 1007.1
20260508194015 66 308 8.0 19.0 0.00 0.00 0.00 27 1007.3
20260508193515 66 236 5.0 13.0 0.00 0.00 0.00 26 1007.2
20260508193059 65 300 6.0 17.0 0.00 0.00 0.00 26 1007.3
20260508192516 65 304 7.0 17.0 0.00 0.00 0.00 26 1007.3
20260508192017 65 240 8.0 16.0 0.00 0.00 0.00 27 1007.4
20260508191532 65 167 6.0 16.0 0.00 0.00 0.00 26 1007.3
20260508191018 65 261 8.0 16.0 0.00 0.00 0.00 27 1007.4
20260508190522 64 309 6.0 15.0 0.00 0.00 0.00 27 1007.6
20260508190036 64 215 7.0 13.0 0.00 0.00 0.00 26 1007.6
20260508185517 65 197 2.0 16.0 0.00 0.00 0.00 27 1007.6
20260508185016 65 174 5.0 17.0 0.00 0.00 0.00 25 1007.7
20260508184533 64 244 8.0 17.0 0.00 0.00 0.00 26 1007.8
20260508184015 64 211 7.0 21.0 0.00 0.00 0.00 27 1007.7
20260508183515 63 238 8.0 21.0 0.00 0.00 0.00 27 1007.7
20260508183036 63 299 6.0 13.0 0.00 0.00 0.00 26 1007.7
20260508182516 63 229 3.0 8.0 0.00 0.00 0.00 28 1007.9
20260508182015 63 252 4.0 17.0 0.00 0.00 0.00 26 1008.0
20260508181532 64 286 8.0 17.0 0.00 0.00 0.00 26 1008.1
20260508181016 64 280 5.0 11.0 0.00 0.00 0.00 27 1008.1
20260508180513 63 272 7.0 11.0 0.00 0.00 0.00 25 1008.2
20260508180032 63 236 6.0 19.0 0.00 0.00 0.00 25 1008.3
20260508175516 63 284 12.0 19.0 0.00 0.00 0.00 26 1008.4
20260508175016 63 182 4.0 11.0 0.00 0.00 0.00 27 1008.5
20260508174551 63 309 8.0 13.0 0.00 0.00 0.00 28 1008.6
20260508174016 63 284 8.0 13.0 0.00 0.00 0.00 25 1008.6
20260508173515 63 338 7.0 15.0 0.00 0.00 0.00 26 1008.6
20260508173031 62 245 7.0 15.0 0.00 0.00 0.00 25 1008.8
20260508172516 63 300 8.0 16.0 0.00 0.00 0.00 27 1008.9
20260508172015 63 295 9.0 16.0 0.00 0.00 0.00 26 1009.0
20260508171536 63 219 6.0 14.0 0.00 0.00 0.00 25 1009.0
20260508171019 63 277 3.0 12.0 0.00 0.00 0.00 27 1009.3
20260508170516 63 236 7.0 15.0 0.00 0.00 0.00 25 1009.4
20260508170030 62 175 7.0 15.0 0.00 0.00 0.00 27 1009.4
20260508165516 62 263 9.0 14.0 0.00 0.00 0.00 26 1009.4
20260508165016 62 317 3.0 15.0 0.00 0.00 0.00 27 1009.5
20260508164537 62 267 4.0 15.0 0.00 0.00 0.00 25 1009.6
20260508164015 61 229 7.0 15.0 0.00 0.00 0.00 28 1009.7
20260508163515 61 161 8.0 15.0 0.00 0.00 0.00 27 1009.8
20260508163034 61 278 6.0 13.0 0.00 0.00 0.00 27 1009.9
20260508162516 61 324 5.0 17.0 0.00 0.00 0.00 30 1009.9
20260508162016 60 257 6.0 17.0 0.00 0.00 0.00 31 1010.0
20260508161540 61 308 9.0 16.0 0.00 0.00 0.00 27 1010.1
20260508161016 61 248 7.0 14.0 0.00 0.00 0.00 29 1010.1
20260508160515 60 294 5.0 14.0 0.00 0.00 0.00 28 1010.1
20260508160037 61 257 8.0 12.0 0.00 0.00 0.00 27 1010.1
20260508155516 61 315 4.0 12.0 0.00 0.00 0.00 30 1010.1
20260508155016 61 302 4.0 12.0 0.00 0.00 0.00 29 1010.1
20260508154532 60 185 5.0 12.0 0.00 0.00 0.00 29 1010.1
20260508154015 60 207 6.0 11.0 0.00 0.00 0.00 33 1010.1
20260508153517 60 188 3.0 11.0 0.00 0.00 0.00 31 1010.1
20260508153037 59 252 4.0 11.0 0.00 0.00 0.00 30 1010.1
20260508152516 59 227 4.0 13.0 0.00 0.00 0.00 29 1010.2
20260508152018 60 280 3.0 13.0 0.00 0.00 0.00 32 1010.2
20260508151539 60 188 4.0 10.0 0.00 0.00 0.00 30 1010.2
20260508151017 59 164 3.0 10.0 0.00 0.00 0.00 30 1010.2
20260508150517 59 225 4.0 9.0 0.00 0.00 0.00 32 1010.2
20260508150031 59 223 5.0 10.0 0.00 0.00 0.00 31 1010.2
20260508145514 58 175 6.0 10.0 0.00 0.00 0.00 32 1010.3
20260508145019 58 146 5.0 10.0 0.00 0.00 0.00 34 1010.3
20260508144529 58 246 4.0 8.0 0.00 0.00 0.00 36 1010.3
20260508144016 57 205 5.0 11.0 0.00 0.00 0.00 36 1010.4
20260508143517 57 213 6.0 11.0 0.00 0.00 0.00 37 1010.4
20260508143031 57 242 6.0 12.0 0.00 0.00 0.00 39 1010.4
20260508142523 56 188 5.0 12.0 0.00 0.00 0.00 40 1010.4
20260508142016 56 182 6.0 11.0 0.00 0.00 0.00 43 1010.4
20260508141532 56 147 6.0 10.0 0.00 0.00 0.00 41 1010.5
20260508141017 56 162 5.0 10.0 0.00 0.00 0.00 42 1010.6
20260508140515 55 168 4.0 12.0 0.00 0.00 0.00 44 1010.5
20260508140033 55 221 4.0 12.0 0.00 0.00 0.00 44 1010.6
20260508135516 54 227 5.0 10.0 0.00 0.00 0.00 45 1010.6
20260508135016 53 252 5.0 12.0 0.00 0.00 0.00 46 1010.8
20260508134530 52 198 7.0 15.0 0.00 0.00 0.00 47 1010.7
20260508134015 52 273 7.0 15.0 0.00 0.00 0.00 47 1010.8
20260508133516 52 232 7.0 15.0 0.00 0.00 0.00 48 1010.8
20260508133047 51 167 6.0 13.0 0.00 0.00 0.00 49 1010.9
20260508132516 51 234 7.0 14.0 0.00 0.00 0.00 51 1011.0
20260508132019 50 167 7.0 13.0 0.00 0.00 0.00 52 1010.9
20260508131535 50 253 7.0 13.0 0.00 0.00 0.00 53 1011.1
20260508131015 49 207 7.0 12.0 0.00 0.00 0.00 54 1011.0
20260508130514 49 275 6.0 13.0 0.00 0.00 0.00 56 1011.0
20260508130030 49 232 6.0 13.0 0.00 0.00 0.00 57 1011.0
20260508125516 48 231 5.0 11.0 0.00 0.00 0.00 59 1011.0
20260508125020 48 198 4.0 7.0 0.00 0.00 0.00 60 1011.0
20260508124533 48 207 2.0 7.0 0.00 0.00 0.00 61 1011.0
20260508124015 47 233 2.0 8.0 0.00 0.00 0.00 62 1011.0
20260508123515 47 221 3.0 8.0 0.00 0.00 0.00 62 1011.1
20260508123031 46 212 3.0 7.0 0.00 0.00 0.00 64 1011.0
20260508122516 45 208 4.0 7.0 0.00 0.00 0.00 65 1011.0
20260508122012 45 194 2.0 6.0 0.00 0.00 0.00 67 1011.1